DEPMR EDFE-EDLN

Flight info

Callsign DEPMR
Flight time N/A
Altitude 5000
Route DCT
Aircraft S22T/L-V/N

Departure

Time 2026-04-23 13:20
Airport Frankfurt-Egelsbach Airport (EDFE)

Arrival

Time N/A
Airport Mönchengladbach Airport (EDLN)
Time Latitude Longitude Altitude Speed Heading
2026-04-23 13:16 49.96219 8.64285 384 ft 0 kts 87°
2026-04-23 13:18 49.96258 8.64305 383 ft 10 kts 288°
2026-04-23 13:19 49.96183 8.64262 385 ft 18 kts 171°
2026-04-23 13:19 49.96183 8.64502 388 ft 22 kts 85°
2026-04-23 13:19 49.96110 8.64484 388 ft 30 kts 226°
2026-04-23 13:19 49.96063 8.63779 409 ft 92 kts 267°
2026-04-23 13:20 49.96012 8.62778 745 ft 93 kts 269°
2026-04-23 13:20 49.95958 8.61755 1044 ft 94 kts 268°
2026-04-23 13:20 49.95774 8.60810 1176 ft 94 kts 224°
2026-04-23 13:20 49.95087 8.60778 1110 ft 108 kts 167°
2026-04-23 13:21 49.94310 8.61010 1138 ft 119 kts 168°
2026-04-23 13:21 49.93461 8.61209 1262 ft 126 kts 172°
2026-04-23 13:21 49.92508 8.61187 1343 ft 144 kts 197°
2026-04-23 13:21 49.91690 8.60580 1551 ft 121 kts 186°
2026-04-23 13:22 49.91080 8.61309 1637 ft 114 kts 95°
2026-04-23 13:22 49.91457 8.62212 1645 ft 105 kts
2026-04-23 13:22 49.92188 8.61878 1579 ft 119 kts 336°
2026-04-23 13:22 49.92950 8.61525 1724 ft 112 kts 348°
2026-04-23 13:23 49.93711 8.61326 1858 ft 109 kts 351°
2026-04-23 13:23 49.94449 8.61188 1861 ft 109 kts 351°
2026-04-23 13:23 49.95190 8.61028 1875 ft 109 kts 349°
2026-04-23 13:23 49.95902 8.60775 1968 ft 104 kts 347°
2026-04-23 13:24 49.96640 8.60678 2133 ft 105 kts 354°
2026-04-23 13:24 49.97354 8.60568 2399 ft 107 kts 348°
2026-04-23 13:24 49.98112 8.60325 2340 ft 126 kts 348°
2026-04-23 13:24 49.98960 8.60190 2408 ft 121 kts
2026-04-23 13:25 49.99641 8.60860 2469 ft 121 kts 52°
2026-04-23 13:25 49.99808 8.62128 2471 ft 127 kts 98°
2026-04-23 13:25 49.99257 8.63203 2375 ft 132 kts 154°
2026-04-23 13:25 49.98367 8.63306 2267 ft 128 kts 200°
2026-04-23 13:26 49.97758 8.62441 2238 ft 118 kts 255°
2026-04-23 13:26 49.97861 8.61260 2217 ft 109 kts 304°
2026-04-23 13:26 49.98450 8.60474 2056 ft 118 kts 333°
2026-04-23 13:26 49.99241 8.60043 1857 ft 129 kts 344°
2026-04-23 13:27 50.00195 8.59833 1912 ft 145 kts 353°
2026-04-23 13:27 50.01232 8.59633 1848 ft 147 kts 350°
2026-04-23 13:27 50.02159 8.59370 1567 ft 126 kts 356°
2026-04-23 13:27 50.02951 8.59599 1312 ft 111 kts 16°
2026-04-23 13:28 50.03661 8.59968 1004 ft 105 kts 15°
2026-04-23 13:28 50.04340 8.60089 748 ft 94 kts 341°
2026-04-23 13:28 50.04630 8.59257 511 ft 104 kts 253°
2026-04-23 13:28 50.04400 8.58241 369 ft 88 kts 252°
2026-04-23 13:29 50.04210 8.57426 371 ft 87 kts 247°
2026-04-23 13:29 50.03948 8.56415 475 ft 110 kts 249°
2026-04-23 13:29 50.03668 8.55263 642 ft 117 kts 247°
2026-04-23 13:29 50.03384 8.54032 801 ft 122 kts 251°
2026-04-23 13:30 50.03060 8.52786 1016 ft 122 kts 253°
2026-04-23 13:30 50.03057 8.51575 1334 ft 109 kts 282°
2026-04-23 13:30 50.03143 8.50407 1565 ft 110 kts 278°
2026-04-23 13:30 50.03245 8.49236 1768 ft 112 kts 281°
2026-04-23 13:31 50.03384 8.47941 1781 ft 130 kts 282°
2026-04-23 13:31 50.03543 8.46488 1786 ft 146 kts 282°
2026-04-23 13:31 50.03746 8.44815 1796 ft 162 kts 282°
2026-04-23 13:31 50.03948 8.43124 2000 ft 161 kts 283°
2026-04-23 13:32 50.04139 8.41399 2012 ft 165 kts 282°
2026-04-23 13:32 50.04324 8.39618 2011 ft 172 kts 282°
2026-04-23 13:32 50.04518 8.37750 2009 ft 175 kts 281°
2026-04-23 13:32 50.04722 8.35876 1998 ft 174 kts 283°
2026-04-23 13:33 50.04937 8.34011 2005 ft 176 kts 283°
2026-04-23 13:33 50.05151 8.32128 2022 ft 174 kts 280°
2026-04-23 13:33 50.05367 8.30301 2133 ft 169 kts 283°
2026-04-23 13:33 50.05587 8.28558 2269 ft 167 kts 283°
2026-04-23 13:34 50.05804 8.26727 2381 ft 166 kts 281°
2026-04-23 13:34 50.06003 8.24985 2502 ft 167 kts 281°
2026-04-23 13:34 50.06207 8.23206 2622 ft 165 kts 283°
2026-04-23 13:34 50.06419 8.21488 2747 ft 163 kts 282°
2026-04-23 13:35 50.06619 8.19744 2865 ft 164 kts 284°
2026-04-23 13:35 50.06789 8.18006 2991 ft 161 kts 281°
2026-04-23 13:35 50.06941 8.16304 3120 ft 158 kts 282°
2026-04-23 13:35 50.07095 8.14618 3292 ft 157 kts 282°
2026-04-23 13:36 50.07261 8.12868 3303 ft 163 kts 282°
2026-04-23 13:36 50.07439 8.11116 3307 ft 168 kts 282°
2026-04-23 13:36 50.07617 8.09302 3303 ft 170 kts 282°
2026-04-23 13:36 50.07800 8.07483 3305 ft 168 kts 282°
2026-04-23 13:37 50.07975 8.05706 3305 ft 169 kts 282°
2026-04-23 13:37 50.08163 8.03904 3307 ft 170 kts 281°
2026-04-23 13:37 50.08367 8.02072 3301 ft 172 kts 282°
2026-04-23 13:37 50.08566 8.00210 3296 ft 175 kts 283°
2026-04-23 13:38 50.08782 7.98335 3304 ft 175 kts 282°
2026-04-23 13:38 50.08977 7.96483 3354 ft 172 kts 282°
2026-04-23 13:38 50.09159 7.94662 3459 ft 166 kts 282°
2026-04-23 13:38 50.09336 7.92903 3559 ft 165 kts 282°
2026-04-23 13:39 50.09505 7.91117 3652 ft 165 kts 282°
2026-04-23 13:39 50.09613 7.89952 3711 ft 162 kts 282°
2026-04-23 13:39 50.09960 7.88536 3782 ft 165 kts 310°
2026-04-23 13:40 50.10853 7.87457 3890 ft 161 kts 327°
2026-04-23 13:40 50.11758 7.86436 3997 ft 161 kts 323°
2026-04-23 13:40 50.12646 7.85337 4107 ft 164 kts 323°
2026-04-23 13:40 50.13525 7.84211 4211 ft 165 kts 322°
2026-04-23 13:41 50.14390 7.83099 4324 ft 166 kts 322°
2026-04-23 13:41 50.15299 7.81952 4412 ft 167 kts 323°
2026-04-23 13:41 50.16208 7.80818 4523 ft 167 kts 323°
2026-04-23 13:41 50.17100 7.79664 4615 ft 165 kts 322°
2026-04-23 13:42 50.17979 7.78532 4693 ft 164 kts 323°
2026-04-23 13:42 50.18883 7.77411 4701 ft 168 kts 323°
2026-04-23 13:42 50.19784 7.76229 4695 ft 170 kts 322°
2026-04-23 13:42 50.20703 7.75064 4705 ft 173 kts 324°
2026-04-23 13:43 50.21639 7.73866 4693 ft 172 kts 322°
2026-04-23 13:43 50.22557 7.72668 4691 ft 171 kts 323°
2026-04-23 13:43 50.23497 7.71502 4697 ft 173 kts 326°
2026-04-23 13:43 50.24466 7.70359 4705 ft 177 kts 324°
2026-04-23 13:44 50.25431 7.69130 4694 ft 177 kts 324°
2026-04-23 13:44 50.26351 7.67940 4696 ft 175 kts 323°
2026-04-23 13:44 50.27309 7.66782 4653 ft 175 kts 326°
2026-04-23 13:44 50.28318 7.65699 4581 ft 174 kts 330°
2026-04-23 13:45 50.29004 7.65045 4648 ft 169 kts 328°
2026-04-23 13:45 50.30210 7.63557 4703 ft 169 kts 325°
2026-04-23 13:45 50.31139 7.62370 4694 ft 175 kts 323°
2026-04-23 13:45 50.32071 7.61160 4684 ft 173 kts 323°
2026-04-23 13:46 50.33014 7.59964 4693 ft 173 kts 323°
2026-04-23 13:46 50.33935 7.58762 4697 ft 172 kts 323°
2026-04-23 13:46 50.34861 7.57559 4700 ft 174 kts 323°
2026-04-23 13:46 50.35785 7.56354 4696 ft 174 kts 323°
2026-04-23 13:47 50.36713 7.55140 4700 ft 171 kts 324°
2026-04-23 13:47 50.37622 7.53975 4702 ft 171 kts 323°
2026-04-23 13:47 50.38551 7.52794 4689 ft 173 kts 323°
2026-04-23 13:47 50.39480 7.51582 4705 ft 173 kts 323°
2026-04-23 13:48 50.40409 7.50367 4705 ft 175 kts 322°
2026-04-23 13:48 50.41338 7.49134 4695 ft 174 kts 323°
2026-04-23 13:48 50.42272 7.47930 4699 ft 173 kts 323°
2026-04-23 13:48 50.43198 7.46743 4699 ft 171 kts 324°
2026-04-23 13:49 50.44117 7.45544 4695 ft 172 kts 323°
2026-04-23 13:49 50.45035 7.44346 4697 ft 173 kts 323°
2026-04-23 13:49 50.45964 7.43132 4694 ft 175 kts 321°
2026-04-23 13:49 50.46897 7.41903 4692 ft 173 kts 324°
2026-04-23 13:50 50.47822 7.40727 4700 ft 170 kts 323°
2026-04-23 13:50 50.48743 7.39537 4696 ft 171 kts 323°